[[{"header":{"parameterUnit":"m.s-1","parameterCategory":1,"la1":30.2991,"la2":30.254,"lo1":-89.0895,"lo2":-89.0444,"dy":0.0017,"dx":0.0017,"nx":28,"ny":28,"refTime":"2025-08-17T03:00:00:Z","depth":0,"parameterNumber":2,"parameterNumberName":"U-component_of_WINDS"},"data":[0,0,0,0,0,0,0,0,0,0,0,0,0,0,0,0,0,0,0,0,0,0,0,0,0,0,0,0,0,0,0,0,0,0,0,0,0,0,0,0,0,0,0,0,0,0,0,0,0,0,0,0,0,0,0,0,0,0,2.0455,2.0456,0,2.0552,2.0553,2.0554,2.0586,2.0586,2.0585,2.0585,2.0675,2.0678,2.0681,0,0,0,0,0,0,0,0,0,0,0,0,0,2.029,2.0292,2.0455,2.0456,2.0458,2.0552,2.0553,2.0554,2.0586,2.0586,2.0585,2.0585,2.0674,2.0677,2.0681,0,0,0,0,0,0,0,0,0,0,0,0,0,2.0371,2.0293,2.0455,2.0485,2.0489,2.0552,2.0553,2.0555,2.0586,2.0586,2.0585,2.0585,2.0673,2.0677,2.0681,2.0719,0,0,2.0694,2.0696,0,0,0,0,0,0,0,0,2.0367,2.0377,2.0479,2.0483,2.0487,2.0557,2.0528,2.0609,2.0586,2.0549,2.0585,2.0584,2.0636,2.0643,2.0662,2.0723,2.0727,2.0694,2.0697,2.0699,2.07,0,0,0,0,0,0,0,2.0361,2.0373,2.0493,2.0481,2.0486,2.0491,2.0502,2.0544,2.0594,2.0552,2.0555,2.0566,2.0638,2.0658,2.0664,2.0728,2.0694,2.0698,2.07,2.0702,2.0825,2.0826,0,0,0,0,0,0,2.0351,2.0368,2.049,2.0496,2.0425,2.0494,2.0507,2.0535,2.0594,2.0602,2.0567,2.0567,2.0651,2.0659,2.0668,2.0716,2.0699,2.0702,2.0705,2.0824,2.0825,2.0826,0,0,0,0,0,0,2.0348,2.0362,2.0486,2.0433,2.0449,2.0498,2.0529,2.0537,2.0557,2.0605,2.0613,2.0579,2.0651,2.0662,2.0707,2.0719,2.0704,2.0708,2.0823,2.0825,2.0826,2.0812,0,0,0,0,0,0,2.0343,2.036,2.0377,2.0433,2.0452,2.0526,2.053,2.0539,2.0566,2.0567,2.0618,2.0626,2.0651,2.07,2.0711,2.0725,2.0711,2.0822,2.0824,2.0825,2.0811,2.0812,2.0813,0,0,0,0,0,2.0337,2.0367,2.0377,2.0392,2.0474,2.0526,2.0537,2.0568,2.0567,2.0582,2.0613,2.0624,2.0717,2.0705,2.0717,2.0732,2.0822,2.0824,2.0825,2.0811,2.0812,2.0813,0,0,0,0,0,0,2.0306,2.0375,2.0387,2.0437,2.0476,2.0532,2.0552,2.0568,2.0606,2.0606,2.064,2.0651,2.0693,2.0717,2.0703,2.0772,2.0769,2.0774,2.0754,2.0756,2.0757,2.075,2.0715,0,0,0,0,0,2.0306,2.0346,2.0402,2.044,2.046,2.0503,2.0527,2.0548,2.0588,2.0604,2.0638,2.0674,2.0712,2.0735,2.0772,2.0815,2.0826,2.0832,2.0833,2.0834,2.0836,2.0861,2.0864,2.0832,2.0832,2.0832,0,0,2.0305,2.0347,2.0369,2.0436,2.0468,2.0507,2.0516,2.0556,2.0584,2.0609,2.0655,2.0681,2.0724,2.0768,2.0789,2.0789,2.0848,2.0836,2.0836,2.0838,2.0863,2.0866,2.0869,2.0833,2.0833,2.0833,0,0,2.0322,2.0358,2.0395,2.0429,2.048,2.0509,2.0517,2.0571,2.0591,2.0638,2.0658,2.069,2.0754,2.0784,2.0807,2.0839,2.085,2.0849,2.0854,2.0878,2.088,2.0882,2.0893,2.0897,2.0852,2.0852,2.0852,0,2.0313,2.0374,2.0411,2.0451,2.0479,2.0507,2.0544,2.0573,2.0632,2.065,2.065,2.0732,2.0762,2.0814,2.0822,2.0841,2.085,2.0843,2.0877,2.088,2.0883,2.0893,2.0897,2.0852,2.0852,2.0852,2.0852,0,2.036,2.0402,2.0425,2.0486,2.0516,2.0554,2.0594,2.062,2.0639,2.0667,2.0714,2.0753,2.0798,2.0812,2.0829,2.0867,2.0866,2.0871,2.0869,2.0885,2.0895,2.09,2.0851,2.0851,2.0851,2.0851,0,0,2.0359,2.0442,2.045,2.0478,2.0537,2.0569,2.0607,2.0656,2.0677,2.0717,2.0749,2.0803,2.0809,2.0836,2.0857,2.0878,2.09,2.0881,2.0882,2.0883,2.0943,2.0939,2.0943,2.0909,2.091,2.0911,2.094,0,2.0384,2.0457,2.0492,2.0549,2.0588,2.0616,2.065,2.0688,2.0716,2.0751,2.078,2.0818,2.0823,2.084,2.0862,2.0893,2.0912,2.0891,2.0937,2.0938,2.0925,2.0948,2.0943,2.0969,2.0944,2.0945,2.0945,0,2.0422,2.0466,2.0528,2.0584,2.0602,2.0631,2.0679,2.0712,2.0756,2.0775,2.0806,2.0827,2.0866,2.0863,2.0917,2.0902,2.0922,2.094,2.0942,2.0946,2.0942,2.0952,2.0977,2.0981,2.0952,2.0952,2.0951,0,2.0415,2.0489,2.0536,2.0559,2.0626,2.0646,2.0674,2.0718,2.0745,2.0786,2.0804,2.0847,2.087,2.0902,2.0933,2.0928,2.0984,2.0983,2.0999,2.0998,2.1008,2.1007,2.1036,2.1023,2.1022,2.1022,2.1022,0,2.0438,2.0474,2.0534,2.0563,2.0604,2.0643,2.0682,2.0712,2.0751,2.0784,2.0811,2.0841,2.0881,2.0915,2.0939,2.098,2.099,2.1005,2.1011,2.1002,2.1,2.1015,2.1014,2.1023,2.1023,2.1023,2.1023,0,2.0437,2.0478,2.0532,2.0592,2.0608,2.0636,2.0686,2.0713,2.0743,2.0785,2.0797,2.0843,2.0885,2.092,2.0974,2.099,2.1032,2.1039,2.1018,2.1021,2.1035,2.1033,2.1074,2.1081,2.1063,2.1064,2.1064,0,2.0449,2.0478,2.0543,2.0569,2.0598,2.0639,2.0668,2.0707,2.0736,2.0789,2.081,2.0855,2.0893,2.0958,2.0994,2.1036,2.1044,2.1056,2.105,2.1041,2.1043,2.1041,2.1044,2.1055,2.1055,2.1055,2.1055,0,2.0466,2.0485,2.0528,2.0578,2.0613,2.0653,2.0693,2.0712,2.0759,2.0789,2.0834,2.0864,2.0922,2.0965,2.1011,2.1037,2.1053,2.1057,2.1063,2.1054,2.1041,2.1048,2.1019,2.1056,2.1056,2.1056,2.1056,2.1056,2.0471,2.0499,2.055,2.0596,2.0632,2.067,2.0699,2.0734,2.0774,2.0826,2.0846,2.0892,2.0935,2.1,2.1026,2.1061,2.1063,2.1071,2.1073,2.1074,2.1073,2.1036,2.1069,2.1069,2.1069,2.1069,2.1069,0,2.0489,2.0524,2.0567,2.0625,2.0661,2.0677,2.0723,2.0751,2.0793,2.0834,2.0872,2.0923,2.0966,2.1007,2.1051,2.1071,2.108,2.1081,2.108,2.1085,2.1069,2.1059,2.1074,2.1074,2.1074,2.1074,2.1074,2.1074,2.0503,2.0551,2.0577,2.0643,2.0677,2.0725,2.075,2.0784,2.0817,2.0875,2.0912,2.094,2.098,2.1028,2.1067,2.1078,2.1092,2.1092,2.1104,2.1087,2.1087,2.1086,2.1077,2.1095,2.1095,2.1118,2.1118,2.1118]},{"header":{"parameterUnit":"m.s-1","parameterCategory":1,"la1":30.2991,"la2":30.254,"lo1":-89.0895,"lo2":-89.0444,"dy":0.0017,"dx":0.0017,"nx":28,"ny":28,"refTime":"2025-08-17T03:00:00:Z","depth":0,"parameterNumber":3,"parameterNumberName":"V-component_of_WINDS"},"data":[0,0,0,0,0,0,0,0,0,0,0,0,0,0,0,0,0,0,0,0,0,0,0,0,0,0,0,0,0,0,0,0,0,0,0,0,0,0,0,0,0,0,0,0,0,0,0,0,0,0,0,0,0,0,0,0,0,0,-0.2124,-0.2124,0,-0.2161,-0.2162,-0.2162,-0.218,-0.218,-0.218,-0.218,-0.2218,-0.2219,-0.222,0,0,0,0,0,0,0,0,0,0,0,0,0,-0.2065,-0.2066,-0.2124,-0.2125,-0.2125,-0.2161,-0.2162,-0.2162,-0.218,-0.218,-0.218,-0.218,-0.2217,-0.2219,-0.222,0,0,0,0,0,0,0,0,0,0,0,0,0,-0.2096,-0.2067,-0.2124,-0.2138,-0.214,-0.2161,-0.2162,-0.2163,-0.218,-0.218,-0.218,-0.218,-0.2217,-0.2218,-0.222,-0.2231,0,0,-0.2225,-0.2225,0,0,0,0,0,0,0,0,-0.2094,-0.2098,-0.2135,-0.2137,-0.2139,-0.2166,-0.2155,-0.2185,-0.218,-0.2164,-0.218,-0.2179,-0.22,-0.2203,-0.221,-0.2232,-0.2234,-0.2225,-0.2226,-0.2226,-0.2227,0,0,0,0,0,0,0,-0.2092,-0.2096,-0.2139,-0.2136,-0.2138,-0.2142,-0.2146,-0.2161,-0.2182,-0.2166,-0.2167,-0.2171,-0.2201,-0.2209,-0.2211,-0.2235,-0.2225,-0.2226,-0.2227,-0.2228,-0.2263,-0.2263,0,0,0,0,0,0,-0.2087,-0.2094,-0.2138,-0.214,-0.2116,-0.2143,-0.2147,-0.2157,-0.2182,-0.2186,-0.2171,-0.2172,-0.2206,-0.221,-0.2213,-0.2225,-0.2226,-0.2228,-0.2229,-0.2263,-0.2263,-0.2263,0,0,0,0,0,0,-0.2086,-0.2091,-0.2136,-0.2117,-0.2123,-0.2144,-0.2155,-0.2158,-0.2166,-0.2186,-0.219,-0.2175,-0.2206,-0.2211,-0.2225,-0.2227,-0.2229,-0.223,-0.2263,-0.2263,-0.2263,-0.225,0,0,0,0,0,0,-0.2084,-0.2091,-0.2096,-0.2117,-0.2124,-0.2149,-0.2155,-0.2159,-0.2168,-0.2169,-0.2191,-0.2195,-0.2207,-0.2223,-0.2227,-0.2229,-0.2231,-0.2263,-0.2263,-0.2263,-0.2251,-0.225,-0.2249,0,0,0,0,0,-0.2082,-0.2091,-0.2096,-0.2101,-0.2131,-0.2149,-0.2153,-0.2167,-0.2168,-0.2173,-0.2186,-0.2194,-0.2226,-0.2224,-0.2229,-0.2231,-0.2263,-0.2263,-0.2263,-0.2251,-0.225,-0.2249,0,0,0,0,0,0,-0.207,-0.2094,-0.21,-0.2116,-0.213,-0.2152,-0.2158,-0.2165,-0.2179,-0.218,-0.2196,-0.2201,-0.2214,-0.2224,-0.2222,-0.2241,-0.2245,-0.2246,-0.2234,-0.2233,-0.2232,-0.2229,-0.2233,0,0,0,0,0,-0.2069,-0.2081,-0.2102,-0.2114,-0.2121,-0.2138,-0.2146,-0.2155,-0.2171,-0.2177,-0.2191,-0.2205,-0.2218,-0.2226,-0.2239,-0.2252,-0.2256,-0.2255,-0.2255,-0.2254,-0.2254,-0.2259,-0.2259,-0.2264,-0.2264,-0.2264,0,0,-0.2067,-0.2082,-0.2089,-0.2112,-0.2124,-0.2136,-0.2143,-0.2156,-0.2164,-0.2179,-0.2193,-0.2203,-0.222,-0.2233,-0.2239,-0.2242,-0.2254,-0.2254,-0.2253,-0.2254,-0.2259,-0.2259,-0.2258,-0.2264,-0.2264,-0.2264,0,0,-0.207,-0.2083,-0.2094,-0.2105,-0.2122,-0.2133,-0.2135,-0.2155,-0.2162,-0.2177,-0.2187,-0.2197,-0.2219,-0.223,-0.2238,-0.2241,-0.2248,-0.2245,-0.2241,-0.2245,-0.2245,-0.2245,-0.2244,-0.2244,-0.2245,-0.2245,-0.2245,0,-0.2066,-0.2084,-0.2098,-0.2109,-0.2118,-0.2131,-0.214,-0.215,-0.2171,-0.2177,-0.2179,-0.2206,-0.2218,-0.2232,-0.2232,-0.2239,-0.2241,-0.2243,-0.2244,-0.2244,-0.2244,-0.2243,-0.2243,-0.2245,-0.2245,-0.2245,-0.2245,0,-0.2077,-0.2089,-0.2096,-0.2114,-0.2124,-0.2134,-0.2148,-0.2156,-0.2164,-0.2174,-0.2186,-0.2201,-0.2216,-0.222,-0.2229,-0.2235,-0.2236,-0.2241,-0.2245,-0.2242,-0.2242,-0.2242,-0.2244,-0.2244,-0.2244,-0.2244,0,0,-0.2075,-0.2099,-0.2101,-0.2108,-0.2127,-0.2136,-0.2146,-0.216,-0.2166,-0.2179,-0.2187,-0.2204,-0.2208,-0.2217,-0.2226,-0.223,-0.2229,-0.2234,-0.2235,-0.2231,-0.2234,-0.223,-0.2229,-0.2233,-0.2233,-0.2234,-0.2232,0,-0.2079,-0.2098,-0.2109,-0.2123,-0.2133,-0.2143,-0.2152,-0.2163,-0.2172,-0.2181,-0.2191,-0.2202,-0.2208,-0.2213,-0.2217,-0.2228,-0.2229,-0.2228,-0.224,-0.224,-0.2234,-0.223,-0.2225,-0.2224,-0.2232,-0.2232,-0.2232,0,-0.2088,-0.2099,-0.2113,-0.2128,-0.2133,-0.214,-0.2152,-0.2162,-0.2174,-0.218,-0.2189,-0.2197,-0.2206,-0.2209,-0.2221,-0.222,-0.2225,-0.2231,-0.2231,-0.2232,-0.2236,-0.2229,-0.2224,-0.2223,-0.2233,-0.2233,-0.2233,0,-0.2083,-0.2102,-0.2112,-0.2118,-0.2136,-0.214,-0.2148,-0.216,-0.2167,-0.2178,-0.2182,-0.2194,-0.22,-0.2208,-0.2218,-0.222,-0.2228,-0.2233,-0.2233,-0.2232,-0.2234,-0.2234,-0.2228,-0.2238,-0.2238,-0.2238,-0.2238,0,-0.2086,-0.2094,-0.2109,-0.2116,-0.2124,-0.2136,-0.2144,-0.2152,-0.2162,-0.2169,-0.2179,-0.2186,-0.22,-0.2207,-0.2215,-0.2223,-0.2226,-0.223,-0.2232,-0.2229,-0.2228,-0.2232,-0.2232,-0.2238,-0.2238,-0.2238,-0.2238,0,-0.2082,-0.2093,-0.2105,-0.2119,-0.2123,-0.2129,-0.2141,-0.2147,-0.2155,-0.2164,-0.2166,-0.218,-0.2189,-0.22,-0.2213,-0.2218,-0.2224,-0.2228,-0.222,-0.2221,-0.2219,-0.2219,-0.2215,-0.2215,-0.2226,-0.2226,-0.2226,0,-0.2083,-0.2089,-0.2104,-0.2109,-0.2116,-0.2125,-0.2131,-0.2142,-0.2148,-0.2161,-0.2164,-0.2174,-0.2182,-0.2196,-0.2206,-0.2216,-0.2219,-0.2217,-0.2221,-0.2216,-0.2217,-0.2216,-0.2216,-0.2216,-0.2216,-0.2216,-0.2216,0,-0.2084,-0.2088,-0.2097,-0.2106,-0.2113,-0.2122,-0.2131,-0.2134,-0.2147,-0.2153,-0.2162,-0.2168,-0.218,-0.2189,-0.2199,-0.2206,-0.2212,-0.2214,-0.2214,-0.2211,-0.2205,-0.2207,-0.2217,-0.2214,-0.2214,-0.2215,-0.2215,-0.2215,-0.2082,-0.2086,-0.2096,-0.2105,-0.2112,-0.212,-0.2125,-0.2133,-0.214,-0.2151,-0.2157,-0.2165,-0.2174,-0.2188,-0.2195,-0.22,-0.2203,-0.2204,-0.2204,-0.2203,-0.2201,-0.2205,-0.2202,-0.2203,-0.2203,-0.2203,-0.2203,0,-0.2081,-0.2087,-0.2095,-0.2106,-0.2112,-0.2117,-0.2126,-0.2131,-0.2138,-0.2146,-0.2153,-0.2162,-0.217,-0.218,-0.2188,-0.219,-0.2193,-0.2192,-0.2192,-0.2193,-0.22,-0.2198,-0.2189,-0.2189,-0.2189,-0.2189,-0.2189,-0.2189,-0.2081,-0.2089,-0.2094,-0.2104,-0.211,-0.2118,-0.2122,-0.2128,-0.2135,-0.2144,-0.215,-0.2156,-0.2164,-0.2173,-0.2179,-0.2182,-0.2184,-0.2181,-0.2185,-0.2191,-0.2192,-0.2194,-0.2192,-0.2182,-0.2182,-0.2177,-0.2177,-0.2177]}]]